Weather History for Carlsbad, NM

Change the Weather History Date:

Wednesday, July 17, 2013

  Actual Average Record
Temperature  
Mean Temperature 66 °F -  
Max Temperature 69 °F 95 °F 107 °F (1978)
Min Temperature 62 °F 69 °F 53 °F (1955)
Growing Degree Days 16 (Base 50)    
Moisture  
Dew Point 63 °F    
Average Humidity 91    
Maximum Humidity 100    
Minimum Humidity 73    
Precipitation  
Precipitation 2.13 in - - ()
Sea Level Pressure  
Sea Level Pressure 30.22 in    
Wind  
Wind Speed 5 mph (NNE)    
Max Wind Speed 10 mph    
Max Gust Speed -    
Visibility 5 miles    
Events Fog , Rain , Thunderstorm    
Averages and records for this station are not official NWS values.
T = Trace of Precipitation, MM = Missing Value Source: NWS Daily Summary

Daily Weather History Graph

Daily Weather History Graph

Search for Another Location

Airport:

Trip Planner

Search our weather history database for the weather conditions in past years. The results will help you decide how hot, cold, wet, or windy it might be!

Date:

Astronomy

Jul. 17, 2013 Rise Set
Actual Time 6:02 AM MDT 8:03 PM MDT
Civil Twilight 5:34 AM MDT 8:31 PM MDT
Nautical Twilight 5:01 AM MDT 9:05 PM MDT
Astronomical Twilight 4:25 AM MDT 9:40 PM MDT
Moon 2:59 PM MDT (7/17) 1:04 AM MDT (7/17)
Length of Visible Light 14h 56m
Length of Day
14h 01m
Waxing Gibbous, 68% of the Moon is Illuminated
Jul 17
Waxing Gibbous
Jul 22
Full
Jul 29
Last Quarter
Aug 6
New
Aug 14
First Quarter

Hourly Weather History & Observations

Time (MDT) Temp. Dew Point Humidity Pressure Visibility Wind Dir Wind Speed Gust Speed Precip Events Conditions
12:53 AM 69.1 °F 60.1 °F 73% 30.08 in 10.0 mi SSE 6.9 mph - N/A   Partly Cloudy
1:49 AM 68.0 °F 60.8 °F 78% 30.21 in 10.0 mi South 3.5 mph - N/A   Overcast
1:53 AM 68.0 °F 61.0 °F 78% 30.06 in 10.0 mi South 3.5 mph - N/A   Overcast
2:53 AM 69.1 °F 61.0 °F 75% 30.06 in 10.0 mi Calm Calm - N/A   Overcast
3:18 AM 69.8 °F 60.8 °F 73% 30.21 in 10.0 mi Calm Calm - N/A   Mostly Cloudy
3:38 AM 69.8 °F 62.6 °F 78% 30.21 in 10.0 mi Calm Calm - N/A   Mostly Cloudy
3:53 AM 69.1 °F 62.1 °F 78% 30.06 in 10.0 mi North 3.5 mph - N/A   Overcast
4:53 AM 69.1 °F 63.0 °F 81% 30.06 in 10.0 mi East 5.8 mph - N/A   Overcast
5:20 AM 69.8 °F 62.6 °F 78% 30.22 in 10.0 mi East 4.6 mph - N/A   Overcast
5:53 AM 69.1 °F 64.0 °F 84% 30.06 in 10.0 mi NE 4.6 mph - N/A   Overcast
6:29 AM 69.8 °F 62.6 °F 78% 30.23 in 10.0 mi NE 8.1 mph - N/A Thunderstorm Overcast
6:43 AM 68.0 °F 64.4 °F 88% 30.24 in 5.0 mi East 5.8 mph - 0.01 in Rain , Thunderstorm Rain
6:48 AM 68.0 °F 64.4 °F 88% 30.24 in 4.0 mi East 6.9 mph - 0.03 in Rain , Thunderstorm Rain
6:53 AM 66.9 °F 64.9 °F 93% 30.10 in 3.0 mi East 8.1 mph - 0.05 in Rain , Thunderstorm Rain
7:01 AM 66.2 °F 64.4 °F 94% 30.24 in 2.5 mi ESE 10.4 mph - 0.04 in Rain , Thunderstorm Heavy Rain
7:09 AM 64.4 °F 62.6 °F 94% 30.25 in 2.0 mi East 8.1 mph - 0.09 in Rain Heavy Rain
7:18 AM 64.4 °F 62.6 °F 94% 30.25 in 1.8 mi ESE 6.9 mph - 0.17 in Rain Heavy Rain
7:27 AM 64.4 °F 62.6 °F 94% 30.26 in 2.0 mi East 6.9 mph - 0.23 in Rain Heavy Rain
7:49 AM 64.4 °F 62.6 °F 94% 30.26 in 5.0 mi Calm Calm - 0.30 in Rain Light Rain
7:53 AM 64.0 °F 61.0 °F 90% 30.12 in 6.0 mi Calm Calm - 0.30 in Rain Light Rain
8:00 AM 64.4 °F 62.6 °F 94% 30.27 in 1.8 mi Calm Calm - 0.06 in Rain Heavy Rain
8:10 AM 62.6 °F 62.6 °F 100% 30.27 in 0.5 mi Calm Calm - 0.17 in Fog , Rain Heavy Rain
8:22 AM 64.4 °F 60.8 °F 88% 30.27 in 1.2 mi Calm Calm - 0.24 in Rain Heavy Rain
8:32 AM 64.4 °F 62.6 °F 94% 30.28 in 3.0 mi Calm Calm - 0.24 in Rain Light Rain
8:44 AM 64.4 °F 62.6 °F 94% 30.28 in 9.0 mi Calm Calm - 0.24 in Rain Light Rain
8:53 AM 66.0 °F 63.0 °F 90% 30.14 in 8.0 mi NE 3.5 mph - 0.25 in Rain Light Rain
9:05 AM 64.4 °F 62.6 °F 94% 30.28 in 2.5 mi NNE 5.8 mph - 0.02 in Rain Rain
9:16 AM 64.4 °F 62.6 °F 94% 30.29 in 1.0 mi East 4.6 mph - 0.09 in Rain Heavy Rain
9:31 AM 64.4 °F 62.6 °F 94% 30.29 in 1.0 mi Calm Calm - 0.18 in Rain Heavy Rain
9:40 AM 64.4 °F 62.6 °F 94% 30.29 in 1.2 mi ENE 4.6 mph - 0.22 in Rain Heavy Rain
9:49 AM 64.4 °F 62.6 °F 94% 30.29 in 1.2 mi ENE 5.8 mph - 0.27 in Rain Heavy Rain
9:53 AM 64.0 °F 63.0 °F 96% 30.17 in 1.2 mi East 6.9 mph - 0.29 in Rain Heavy Rain
10:25 AM 64.4 °F 62.6 °F 94% 30.29 in 1.2 mi NNE 4.6 mph - 0.22 in Rain Heavy Rain
10:34 AM 64.4 °F 62.6 °F 94% 30.30 in 2.0 mi NNE 6.9 mph - 0.26 in Rain Rain
10:48 AM 64.4 °F 62.6 °F 94% 30.29 in 3.0 mi NNE 5.8 mph - 0.30 in Rain Rain
10:53 AM 64.9 °F 63.0 °F 93% 30.17 in 2.5 mi NE 5.8 mph - 0.32 in Rain Heavy Rain
11:48 AM 66.2 °F 64.4 °F 94% 30.29 in 4.0 mi North 5.8 mph - 0.16 in Rain Light Rain
11:53 AM 66.0 °F 64.0 °F 93% 30.16 in 3.0 mi North 4.6 mph - 0.16 in Rain Rain
12:45 PM 66.2 °F 64.4 °F 94% 30.28 in 8.0 mi NNW 5.8 mph - 0.02 in Rain Light Rain
12:53 PM 66.0 °F 64.0 °F 93% 30.16 in 9.0 mi NNW 8.1 mph - 0.03 in Rain Light Rain
1:07 PM 66.2 °F 64.4 °F 94% 30.28 in 6.0 mi North 5.8 mph - 0.01 in Rain Light Rain
1:41 PM 66.2 °F 64.4 °F 94% 30.29 in 1.5 mi North 3.5 mph - 0.10 in Rain Rain
1:49 PM 66.2 °F 64.4 °F 94% 30.29 in 0.5 mi NW 6.9 mph - 0.17 in Fog , Rain Rain
1:53 PM 66.0 °F 64.0 °F 93% 30.17 in 1.8 mi NW 6.9 mph - 0.18 in Rain Light Rain
1:55 PM 66.2 °F 64.4 °F 94% 30.28 in 3.0 mi NW 8.1 mph - 0.00 in Rain Light Rain
2:37 PM 66.2 °F 64.4 °F 94% 30.27 in 2.0 mi NNW 9.2 mph - 0.10 in Rain Rain
2:53 PM 66.9 °F 64.9 °F 93% 30.14 in 3.0 mi NNW 9.2 mph - 0.13 in Rain Rain
3:27 PM 66.2 °F 64.4 °F 94% 30.26 in 2.5 mi NNW 9.2 mph - 0.06 in Rain Rain
3:37 PM 66.2 °F 64.4 °F 94% 30.26 in 3.0 mi NNW 9.2 mph - 0.07 in Rain Light Rain
3:53 PM 66.9 °F 64.0 °F 90% 30.13 in 4.0 mi NNW 9.2 mph - 0.10 in Rain Light Rain
4:31 PM 68.0 °F 64.4 °F 88% 30.25 in 10.0 mi North 8.1 mph - 0.01 in Rain Light Rain
4:53 PM 68.0 °F 64.9 °F 90% 30.12 in 10.0 mi North 9.2 mph - 0.01 in Rain Light Rain
5:22 PM 68.0 °F 64.4 °F 88% 30.24 in 1.8 mi NE 10.4 mph - 0.03 in Rain Rain
5:30 PM 66.2 °F 64.4 °F 94% 30.24 in 3.0 mi NE 9.2 mph - 0.03 in Rain Light Rain
5:38 PM 66.2 °F 64.4 °F 94% 30.24 in 8.0 mi NNE 8.1 mph - 0.03 in Rain Light Rain
5:53 PM 68.0 °F 64.0 °F 87% 30.11 in 10.0 mi North 8.1 mph - 0.03 in Rain Light Rain
6:00 PM 68.0 °F 64.4 °F 88% 30.23 in 10.0 mi North 6.9 mph - 0.00 in Rain Light Rain
6:53 PM 68.0 °F 64.0 °F 87% 30.11 in 10.0 mi North 5.8 mph - 0.01 in Rain Light Rain
7:53 PM 68.0 °F 64.9 °F 90% 30.13 in 10.0 mi North 4.6 mph - 0.01 in Rain Light Rain
8:53 PM 66.9 °F 64.9 °F 93% 30.14 in 2.0 mi North 6.9 mph - 0.10 in Rain Heavy Rain
9:00 PM 66.2 °F 64.4 °F 94% 30.26 in 3.0 mi North 5.8 mph - 0.01 in Rain Light Rain
9:14 PM 66.2 °F 64.4 °F 94% 30.26 in 7.0 mi NNW 8.1 mph - 0.01 in Rain Light Rain
9:28 PM 66.2 °F 64.4 °F 94% 30.26 in 8.0 mi NNW 5.8 mph - 0.02 in Rain Light Rain
9:53 PM 66.9 °F 64.9 °F 93% 30.14 in 8.0 mi WNW 6.9 mph - 0.03 in Rain Light Rain
10:04 PM 66.2 °F 64.4 °F 94% 30.26 in 5.0 mi NW 6.9 mph - 0.01 in Rain Light Rain
10:24 PM 66.2 °F 64.4 °F 94% 30.26 in 2.5 mi NW 5.8 mph - 0.07 in Rain Rain
10:31 PM 66.2 °F 64.4 °F 94% 30.26 in 5.0 mi NW 5.8 mph - 0.07 in Rain Light Rain
10:46 PM 66.2 °F 64.4 °F 94% 30.27 in 10.0 mi Calm Calm - 0.08 in Rain Light Rain
10:53 PM 66.0 °F 64.0 °F 93% 30.15 in 8.0 mi NNW 4.6 mph - 0.08 in Rain Light Rain
11:06 PM 66.2 °F 64.4 °F 94% 30.26 in 8.0 mi NNW 5.8 mph - 0.01 in Rain Light Rain
11:20 PM 66.2 °F 64.4 °F 94% 30.26 in 4.0 mi NNW 4.6 mph - 0.03 in Rain Rain
11:28 PM 66.2 °F 64.4 °F 94% 30.27 in 4.0 mi NNW 5.8 mph - 0.03 in Rain Light Rain
11:53 PM 66.0 °F 64.0 °F 93% 30.14 in 8.0 mi NNW 5.8 mph - 0.05 in Rain Light Rain